| time (UTC) | temp C | wind direction | speed KPH | gust KPH | rain 1hr cm | rain 24hr cm | rain mn cm | humidity % | barometer mb |
| 20260902212950 | 35 | 198 | 1.6 | 12.9 | 0.00 | 0.00 | 0.00 | 52 | 1017.5 |
| 20260902212447 | 35 | 126 | 3.2 | 4.8 | 0.00 | 0.00 | 0.00 | 51 | 1017.6 |
| 20260902211943 | 35 | 132 | 3.2 | 4.8 | 0.00 | 0.00 | 0.00 | 51 | 1017.7 |
| 20260902211438 | 35 | 103 | 3.2 | 3.2 | 0.00 | 0.00 | 0.00 | 52 | 1017.8 |
| 20260902210933 | 36 | 198 | 3.2 | 6.4 | 0.00 | 0.00 | 0.00 | 50 | 1017.6 |
| 20260902210428 | 35 | 111 | 1.6 | 3.2 | 0.00 | 0.00 | 0.00 | 52 | 1017.8 |
| 20260902205926 | 36 | 83 | 0.0 | 4.8 | 0.00 | 0.00 | 0.00 | 51 | 1017.8 |
| 20260902205422 | 36 | 129 | 1.6 | 1.6 | 0.00 | 0.00 | 0.00 | 51 | 1017.9 |
| 20260902204917 | 36 | 118 | 3.2 | 3.2 | 0.00 | 0.00 | 0.00 | 51 | 1017.8 |
| 20260902204417 | 36 | 110 | 1.6 | 3.2 | 0.00 | 0.00 | 0.00 | 50 | 1017.9 |
| 20260902203912 | 36 | 130 | 3.2 | 4.8 | 0.00 | 0.00 | 0.00 | 49 | 1017.9 |
| 20260902203408 | 36 | 107 | 1.6 | 4.8 | 0.00 | 0.00 | 0.00 | 51 | 1017.8 |
| 20260902202907 | 35 | 109 | 0.0 | 3.2 | 0.00 | 0.00 | 0.00 | 51 | 1018.1 |
| 20260902202403 | 35 | 78 | 0.0 | 3.2 | 0.00 | 0.00 | 0.00 | 52 | 1017.8 |
| 20260902201900 | 35 | 103 | 0.0 | 4.8 | 0.00 | 0.00 | 0.00 | 52 | 1018.1 |
| 20260902201400 | 36 | 86 | 1.6 | 4.8 | 0.00 | 0.00 | 0.00 | 50 | 1018.0 |
| 20260902200900 | 36 | 214 | 3.2 | 4.8 | 0.00 | 0.00 | 0.00 | 51 | 1018.0 |
| 20260902200355 | 35 | 137 | 1.6 | 4.8 | 0.00 | 0.00 | 0.00 | 51 | 1018.0 |
| 20260902195850 | 36 | 119 | 3.2 | 6.4 | 0.00 | 0.00 | 0.00 | 50 | 1018.0 |
| 20260902195350 | 36 | 147 | 0.0 | 3.2 | 0.00 | 0.00 | 0.00 | 49 | 1018.3 |
| 20260902194845 | 36 | 79 | 1.6 | 3.2 | 0.00 | 0.00 | 0.00 | 52 | 1018.1 |
| 20260902194345 | 36 | 239 | 4.8 | 6.4 | 0.00 | 0.00 | 0.00 | 50 | 1018.3 |
| 20260902193840 | 35 | 137 | 3.2 | 4.8 | 0.00 | 0.00 | 0.00 | 51 | 1018.5 |
| 20260902193336 | 35 | 110 | 1.6 | 4.8 | 0.00 | 0.00 | 0.00 | 52 | 1018.6 |
| 20260902192835 | 35 | 84 | 1.6 | 1.6 | 0.00 | 0.00 | 0.00 | 53 | 1018.5 |
| 20260902192334 | 35 | 135 | 1.6 | 3.2 | 0.00 | 0.00 | 0.00 | 53 | 1018.6 |
| 20260902191833 | 35 | 92 | 3.2 | 6.4 | 0.00 | 0.00 | 0.00 | 52 | 1018.8 |
| 20260902191329 | 35 | 88 | 1.6 | 4.8 | 0.00 | 0.00 | 0.00 | 52 | 1018.8 |
| 20260902190824 | 36 | 129 | 1.6 | 3.2 | 0.00 | 0.00 | 0.00 | 51 | 1018.7 |
| 20260902190323 | 36 | 124 | 3.2 | 6.4 | 0.00 | 0.00 | 0.00 | 50 | 1018.7 |
| 20260902185820 | 36 | 81 | 1.6 | 3.2 | 0.00 | 0.00 | 0.00 | 52 | 1018.9 |
| 20260902185317 | 36 | 112 | 3.2 | 4.8 | 0.00 | 0.00 | 0.00 | 51 | 1018.9 |
| 20260902184811 | 36 | 173 | 0.0 | 3.2 | 0.00 | 0.00 | 0.00 | 51 | 1018.9 |
| 20260902184306 | 35 | 160 | 1.6 | 6.4 | 0.00 | 0.00 | 0.00 | 51 | 1018.7 |
| 20260902183801 | 35 | 75 | 1.6 | 11.3 | 0.00 | 0.00 | 0.00 | 53 | 1018.9 |
| 20260902183258 | 35 | 174 | 3.2 | 4.8 | 0.00 | 0.00 | 0.00 | 54 | 1019.0 |
| 20260902182753 | 35 | 105 | 1.6 | 3.2 | 0.00 | 0.00 | 0.00 | 52 | 1019.1 |
| 20260902182250 | 35 | 83 | 1.6 | 3.2 | 0.00 | 0.00 | 0.00 | 51 | 1018.9 |
| 20260902181746 | 35 | 111 | 0.0 | 4.8 | 0.00 | 0.00 | 0.00 | 52 | 1019.0 |
| 20260902181245 | 35 | 194 | 1.6 | 4.8 | 0.00 | 0.00 | 0.00 | 51 | 1019.0 |
| 20260902180740 | 35 | 85 | 3.2 | 4.8 | 0.00 | 0.00 | 0.00 | 53 | 1019.1 |
| 20260902180236 | 35 | 168 | 3.2 | 9.7 | 0.00 | 0.00 | 0.00 | 54 | 1019.2 |
| 20260902175731 | 35 | 151 | 4.8 | 9.7 | 0.00 | 0.00 | 0.00 | 52 | 1019.1 |
| 20260902175226 | 35 | 91 | 1.6 | 3.2 | 0.00 | 0.00 | 0.00 | 56 | 1019.2 |
| 20260902174722 | 35 | 70 | 1.6 | 3.2 | 0.00 | 0.00 | 0.00 | 55 | 1019.1 |
| 20260902174218 | 35 | 112 | 3.2 | 4.8 | 0.00 | 0.00 | 0.00 | 54 | 1019.2 |
| 20260902173713 | 34 | 79 | 1.6 | 4.8 | 0.00 | 0.00 | 0.00 | 57 | 1019.4 |
| 20260902173208 | 34 | 82 | 1.6 | 4.8 | 0.00 | 0.00 | 0.00 | 56 | 1019.3 |
| 20260902172703 | 34 | 195 | 3.2 | 4.8 | 0.00 | 0.00 | 0.00 | 57 | 1019.4 |
| 20260902172202 | 35 | 144 | 1.6 | 6.4 | 0.00 | 0.00 | 0.00 | 57 | 1019.5 |
| 20260902171657 | 35 | 52 | 3.2 | 4.8 | 0.00 | 0.00 | 0.00 | 57 | 1019.6 |
| 20260902171153 | 35 | 191 | 4.8 | 6.4 | 0.00 | 0.00 | 0.00 | 56 | 1019.6 |
| 20260902170649 | 35 | 97 | 1.6 | 3.2 | 0.00 | 0.00 | 0.00 | 57 | 1019.6 |
| 20260902170144 | 34 | 89 | 1.6 | 3.2 | 0.00 | 0.00 | 0.00 | 58 | 1019.7 |
| 20260902165639 | 34 | 115 | 1.6 | 4.8 | 0.00 | 0.00 | 0.00 | 57 | 1019.6 |
| 20260902165138 | 34 | 82 | 1.6 | 4.8 | 0.00 | 0.00 | 0.00 | 57 | 1019.8 |
| 20260902164634 | 34 | 84 | 1.6 | 4.8 | 0.00 | 0.00 | 0.00 | 57 | 1019.7 |
| 20260902164132 | 34 | 90 | 0.0 | 1.6 | 0.00 | 0.00 | 0.00 | 57 | 1019.6 |
| 20260902163628 | 34 | 214 | 4.8 | 9.7 | 0.00 | 0.00 | 0.00 | 58 | 1019.8 |
| 20260902163127 | 34 | 91 | 0.0 | 4.8 | 0.00 | 0.00 | 0.00 | 60 | 1019.9 |
| 20260902162626 | 34 | 84 | 1.6 | 4.8 | 0.00 | 0.00 | 0.00 | 57 | 1019.7 |
| 20260902162121 | 33 | 267 | 3.2 | 3.2 | 0.00 | 0.00 | 0.00 | 57 | 1019.8 |
| 20260902161616 | 33 | 87 | 1.6 | 3.2 | 0.00 | 0.00 | 0.00 | 58 | 1020.0 |
| 20260902161112 | 33 | 189 | 3.2 | 3.2 | 0.00 | 0.00 | 0.00 | 58 | 1020.0 |
| 20260902160608 | 33 | 139 | 3.2 | 4.8 | 0.00 | 0.00 | 0.00 | 58 | 1019.9 |
| 20260902160103 | 33 | 191 | 1.6 | 4.8 | 0.00 | 0.00 | 0.00 | 59 | 1020.0 |
| 20260902155601 | 33 | 147 | 3.2 | 3.2 | 0.00 | 0.00 | 0.00 | 58 | 1019.9 |
| 20260902155100 | 33 | 95 | 1.6 | 3.2 | 0.00 | 0.00 | 0.00 | 60 | 1019.9 |
| 20260902154555 | 33 | 150 | 1.6 | 3.2 | 0.00 | 0.00 | 0.00 | 60 | 1020.1 |
| 20260902154050 | 33 | 85 | 3.2 | 3.2 | 0.00 | 0.00 | 0.00 | 60 | 1020.1 |
| 20260902153548 | 33 | 174 | 1.6 | 4.8 | 0.00 | 0.00 | 0.00 | 60 | 1020.2 |
| 20260902153044 | 32 | 135 | 1.6 | 3.2 | 0.00 | 0.00 | 0.00 | 62 | 1020.2 |
| 20260902152541 | 32 | 92 | 0.0 | 3.2 | 0.00 | 0.00 | 0.00 | 63 | 1020.2 |
| 20260902152036 | 32 | 130 | 3.2 | 3.2 | 0.00 | 0.00 | 0.00 | 62 | 1020.1 |
| 20260902151532 | 32 | 108 | 3.2 | 4.8 | 0.00 | 0.00 | 0.00 | 63 | 1020.3 |
| 20260902151031 | 32 | 95 | 0.0 | 3.2 | 0.00 | 0.00 | 0.00 | 63 | 1020.3 |
| 20260902150526 | 32 | 86 | 0.0 | 3.2 | 0.00 | 0.00 | 0.00 | 62 | 1020.2 |
| 20260902150022 | 32 | 108 | 1.6 | 1.6 | 0.00 | 0.00 | 0.00 | 64 | 1020.3 |
| 20260902145517 | 31 | 125 | 1.6 | 3.2 | 0.00 | 0.00 | 0.00 | 66 | 1020.4 |
| 20260902145016 | 31 | 121 | 1.6 | 3.2 | 0.00 | 0.00 | 0.00 | 65 | 1020.1 |
| 20260902144514 | 31 | 88 | 1.6 | 1.6 | 0.00 | 0.00 | 0.00 | 67 | 1020.1 |
| 20260902144013 | 31 | 110 | 1.6 | 3.2 | 0.00 | 0.00 | 0.00 | 66 | 1020.2 |
| 20260902143509 | 31 | 113 | 3.2 | 3.2 | 0.00 | 0.00 | 0.00 | 67 | 1020.4 |
| 20260902143004 | 30 | 203 | 1.6 | 3.2 | 0.00 | 0.00 | 0.00 | 68 | 1020.1 |
| 20260902142459 | 30 | 139 | 1.6 | 3.2 | 0.00 | 0.00 | 0.00 | 69 | 1020.1 |
| 20260902141954 | 30 | 99 | 0.0 | 1.6 | 0.00 | 0.00 | 0.00 | 71 | 1020.0 |
| 20260902141450 | 30 | 169 | 4.8 | 6.4 | 0.00 | 0.00 | 0.00 | 68 | 1020.1 |
| 20260902140949 | 30 | 97 | 0.0 | 1.6 | 0.00 | 0.00 | 0.00 | 70 | 1020.1 |
| 20260902140445 | 30 | 101 | 0.0 | 3.2 | 0.00 | 0.00 | 0.00 | 70 | 1020.2 |
| 20260902135944 | 29 | 103 | 1.6 | 3.2 | 0.00 | 0.00 | 0.00 | 71 | 1020.2 |
| 20260902135440 | 29 | 117 | 1.6 | 4.8 | 0.00 | 0.00 | 0.00 | 71 | 1020.1 |
| 20260902134939 | 29 | 113 | 1.6 | 3.2 | 0.00 | 0.00 | 0.00 | 71 | 1020.1 |
| 20260902134435 | 28 | 101 | 0.0 | 1.6 | 0.00 | 0.00 | 0.00 | 71 | 1020.2 |
| 20260902133931 | 28 | 78 | 1.6 | 4.8 | 0.00 | 0.00 | 0.00 | 71 | 1020.2 |
| 20260902133431 | 28 | 95 | 0.0 | 1.6 | 0.00 | 0.00 | 0.00 | 73 | 1020.3 |
| 20260902132926 | 28 | 114 | 1.6 | 3.2 | 0.00 | 0.00 | 0.00 | 74 | 1020.1 |
| 20260902132421 | 28 | 108 | 0.0 | 4.8 | 0.00 | 0.00 | 0.00 | 75 | 1020.1 |
| 20260902131915 | 27 | 79 | 1.6 | 3.2 | 0.00 | 0.00 | 0.00 | 75 | 1020.2 |
| 20260902131413 | 27 | 108 | 0.0 | 1.6 | 0.00 | 0.00 | 0.00 | 76 | 1020.2 |
| 20260902130911 | 27 | 90 | 0.0 | 0.0 | 0.00 | 0.00 | 0.00 | 77 | 1020.2 |
| 20260902130408 | 27 | 94 | 0.0 | 1.6 | 0.00 | 0.00 | 0.00 | 78 | 1020.0 |
| 20260902125902 | 27 | 81 | 0.0 | 1.6 | 0.00 | 0.00 | 0.00 | 78 | 1020.0 |
| 20260902125359 | 26 | 86 | 0.0 | 1.6 | 0.00 | 0.00 | 0.00 | 79 | 1020.0 |
| 20260902124855 | 26 | 90 | 0.0 | 0.0 | 0.00 | 0.00 | 0.00 | 80 | 1020.0 |
| 20260902124350 | 26 | 86 | 0.0 | 1.6 | 0.00 | 0.00 | 0.00 | 81 | 1020.1 |
| 20260902123845 | 25 | 97 | 0.0 | 1.6 | 0.00 | 0.00 | 0.00 | 83 | 1020.0 |
| 20260902123342 | 25 | 105 | 0.0 | 1.6 | 0.00 | 0.00 | 0.00 | 85 | 1019.8 |
| 20260902122840 | 25 | 101 | 0.0 | 0.0 | 0.00 | 0.00 | 0.00 | 86 | 1019.9 |
| 20260902122336 | 24 | 104 | 0.0 | 0.0 | 0.00 | 0.00 | 0.00 | 87 | 1019.8 |
| 20260902121836 | 24 | 103 | 0.0 | 0.0 | 0.00 | 0.00 | 0.00 | 88 | 1019.8 |
| 20260902121331 | 23 | 104 | 0.0 | 0.0 | 0.00 | 0.00 | 0.00 | 88 | 1019.8 |
| 20260902120826 | 23 | 104 | 0.0 | 0.0 | 0.00 | 0.00 | 0.00 | 89 | 1019.9 |
| 20260902120322 | 23 | 102 | 0.0 | 0.0 | 0.00 | 0.00 | 0.00 | 89 | 1019.6 |
| 20260902115817 | 23 | 99 | 0.0 | 0.0 | 0.00 | 0.00 | 0.00 | 91 | 1019.7 |
| 20260902115314 | 23 | 99 | 0.0 | 0.0 | 0.00 | 0.00 | 0.00 | 91 | 1019.6 |
| 20260902114809 | 22 | 99 | 0.0 | 0.0 | 0.00 | 0.00 | 0.00 | 92 | 1019.5 |
| 20260902114305 | 22 | 99 | 0.0 | 0.0 | 0.00 | 0.00 | 0.00 | 92 | 1019.5 |
| 20260902113805 | 22 | 98 | 0.0 | 0.0 | 0.00 | 0.00 | 0.00 | 92 | 1019.6 |
| 20260902113300 | 22 | 98 | 0.0 | 0.0 | 0.00 | 0.00 | 0.00 | 92 | 1019.6 |
| 20260902112800 | 22 | 101 | 0.0 | 0.0 | 0.00 | 0.00 | 0.00 | 92 | 1019.3 |
| 20260902112257 | 22 | 100 | 0.0 | 0.0 | 0.00 | 0.00 | 0.00 | 93 | 1019.3 |
| 20260902111752 | 22 | 100 | 0.0 | 0.0 | 0.00 | 0.00 | 0.00 | 93 | 1019.4 |
| 20260902111249 | 22 | 100 | 0.0 | 0.0 | 0.00 | 0.00 | 0.00 | 93 | 1019.2 |
| 20260902110744 | 22 | 102 | 0.0 | 0.0 | 0.00 | 0.00 | 0.00 | 92 | 1019.3 |
| 20260902110240 | 22 | 102 | 0.0 | 0.0 | 0.00 | 0.00 | 0.00 | 92 | 1019.3 |
| 20260902105739 | 22 | 102 | 0.0 | 0.0 | 0.00 | 0.00 | 0.00 | 92 | 1019.2 |
| 20260902105235 | 22 | 103 | 0.0 | 0.0 | 0.00 | 0.00 | 0.00 | 92 | 1019.3 |
| 20260902104730 | 22 | 103 | 0.0 | 0.0 | 0.00 | 0.00 | 0.00 | 92 | 1019.4 |
| 20260902104226 | 22 | 98 | 0.0 | 0.0 | 0.00 | 0.00 | 0.00 | 93 | 1019.3 |
| 20260902103725 | 22 | 100 | 0.0 | 0.0 | 0.00 | 0.00 | 0.00 | 92 | 1019.3 |
| 20260902103225 | 22 | 100 | 0.0 | 0.0 | 0.00 | 0.00 | 0.00 | 92 | 1019.3 |
| 20260902102721 | 22 | 100 | 0.0 | 0.0 | 0.00 | 0.00 | 0.00 | 92 | 1019.3 |
| 20260902102218 | 22 | 100 | 0.0 | 0.0 | 0.00 | 0.00 | 0.00 | 92 | 1019.2 |
| 20260902101713 | 22 | 100 | 0.0 | 0.0 | 0.00 | 0.00 | 0.00 | 93 | 1019.4 |
| 20260902101208 | 22 | 101 | 0.0 | 0.0 | 0.00 | 0.00 | 0.00 | 93 | 1019.2 |
| 20260902100702 | 22 | 101 | 0.0 | 0.0 | 0.00 | 0.00 | 0.00 | 93 | 1019.2 |
| 20260902100157 | 22 | 94 | 0.0 | 0.0 | 0.00 | 0.00 | 0.00 | 93 | 1019.2 |
| 20260902095656 | 22 | 94 | 0.0 | 0.0 | 0.00 | 0.00 | 0.00 | 93 | 1019.2 |
| 20260902095155 | 22 | 98 | 0.0 | 0.0 | 0.00 | 0.00 | 0.00 | 92 | 1019.1 |
| 20260902094651 | 22 | 98 | 0.0 | 0.0 | 0.00 | 0.00 | 0.00 | 92 | 1019.2 |
| 20260902094147 | 22 | 98 | 0.0 | 0.0 | 0.00 | 0.00 | 0.00 | 92 | 1018.9 |
| 20260902093646 | 22 | 98 | 0.0 | 0.0 | 0.00 | 0.00 | 0.00 | 93 | 1019.1 |
| 20260902093141 | 22 | 97 | 0.0 | 0.0 | 0.00 | 0.00 | 0.00 | 92 | 1019.1 |
| 20260902092636 | 22 | 97 | 0.0 | 0.0 | 0.00 | 0.00 | 0.00 | 92 | 1019.1 |
| 20260902092131 | 22 | 98 | 0.0 | 0.0 | 0.00 | 0.00 | 0.00 | 92 | 1019.1 |
| 20260902091626 | 22 | 98 | 0.0 | 0.0 | 0.00 | 0.00 | 0.00 | 91 | 1019.0 |
| 20260902091122 | 23 | 98 | 0.0 | 0.0 | 0.00 | 0.00 | 0.00 | 91 | 1019.0 |
| 20260902090618 | 23 | 98 | 0.0 | 0.0 | 0.00 | 0.00 | 0.00 | 92 | 1019.1 |
| 20260902090117 | 22 | 94 | 0.0 | 0.0 | 0.00 | 0.00 | 0.00 | 92 | 1019.0 |
| 20260902085612 | 22 | 94 | 0.0 | 0.0 | 0.00 | 0.00 | 0.00 | 91 | 1018.8 |
| 20260902085107 | 23 | 94 | 0.0 | 0.0 | 0.00 | 0.00 | 0.00 | 91 | 1018.8 |
| 20260902084603 | 23 | 94 | 0.0 | 0.0 | 0.00 | 0.00 | 0.00 | 92 | 1018.9 |
| 20260902084058 | 23 | 95 | 0.0 | 0.0 | 0.00 | 0.00 | 0.00 | 91 | 1018.8 |
| 20260902083554 | 23 | 95 | 0.0 | 0.0 | 0.00 | 0.00 | 0.00 | 91 | 1018.6 |
| 20260902083053 | 23 | 95 | 0.0 | 0.0 | 0.00 | 0.00 | 0.00 | 90 | 1018.7 |
| 20260902082549 | 23 | 95 | 0.0 | 0.0 | 0.00 | 0.00 | 0.00 | 90 | 1018.5 |
| 20260902082045 | 23 | 95 | 0.0 | 0.0 | 0.00 | 0.00 | 0.00 | 90 | 1018.5 |
| 20260902081542 | 23 | 100 | 0.0 | 0.0 | 0.00 | 0.00 | 0.00 | 90 | 1018.5 |
| 20260902081041 | 23 | 100 | 0.0 | 0.0 | 0.00 | 0.00 | 0.00 | 89 | 1018.4 |
| 20260902080537 | 23 | 99 | 0.0 | 0.0 | 0.00 | 0.00 | 0.00 | 89 | 1018.3 |
| 20260902080033 | 23 | 98 | 0.0 | 0.0 | 0.00 | 0.00 | 0.00 | 89 | 1018.5 |
| 20260902075533 | 23 | 98 | 0.0 | 0.0 | 0.00 | 0.00 | 0.00 | 88 | 1018.4 |
| 20260902075029 | 23 | 98 | 0.0 | 0.0 | 0.00 | 0.00 | 0.00 | 88 | 1018.4 |
| 20260902074524 | 23 | 102 | 0.0 | 0.0 | 0.00 | 0.00 | 0.00 | 88 | 1018.3 |
| 20260902074019 | 23 | 102 | 0.0 | 0.0 | 0.00 | 0.00 | 0.00 | 87 | 1018.4 |
| 20260902073515 | 24 | 103 | 0.0 | 0.0 | 0.00 | 0.00 | 0.00 | 87 | 1018.4 |
| 20260902073011 | 24 | 103 | 0.0 | 0.0 | 0.00 | 0.00 | 0.00 | 87 | 1018.5 |
| 20260902072506 | 24 | 107 | 0.0 | 0.0 | 0.00 | 0.00 | 0.00 | 87 | 1018.4 |
| 20260902072003 | 24 | 104 | 0.0 | 0.0 | 0.00 | 0.00 | 0.00 | 87 | 1018.2 |
| 20260902071502 | 24 | 104 | 0.0 | 0.0 | 0.00 | 0.00 | 0.00 | 87 | 1018.3 |
| 20260902070959 | 24 | 104 | 0.0 | 0.0 | 0.00 | 0.00 | 0.00 | 87 | 1018.4 |
| 20260902070454 | 24 | 104 | 0.0 | 0.0 | 0.00 | 0.00 | 0.00 | 86 | 1018.4 |
| 20260902065952 | 24 | 104 | 0.0 | 0.0 | 0.00 | 0.00 | 0.00 | 86 | 1018.4 |
| 20260902065448 | 24 | 103 | 0.0 | 0.0 | 0.00 | 0.00 | 0.00 | 86 | 1018.3 |
| 20260902064943 | 24 | 105 | 0.0 | 0.0 | 0.00 | 0.00 | 0.00 | 85 | 1018.3 |
| 20260902064439 | 25 | 102 | 0.0 | 0.0 | 0.00 | 0.00 | 0.00 | 85 | 1018.3 |
| 20260902063934 | 25 | 101 | 0.0 | 0.0 | 0.00 | 0.00 | 0.00 | 85 | 1018.6 |
| 20260902063434 | 25 | 105 | 0.0 | 0.0 | 0.00 | 0.00 | 0.00 | 85 | 1018.2 |
| 20260902062929 | 25 | 100 | 0.0 | 0.0 | 0.00 | 0.00 | 0.00 | 85 | 1018.3 |
| 20260902062428 | 25 | 100 | 0.0 | 0.0 | 0.00 | 0.00 | 0.00 | 85 | 1018.4 |
| 20260902061923 | 25 | 100 | 0.0 | 0.0 | 0.00 | 0.00 | 0.00 | 84 | 1018.4 |
| 20260902061418 | 25 | 100 | 0.0 | 0.0 | 0.00 | 0.00 | 0.00 | 84 | 1018.3 |
| 20260902060914 | 25 | 100 | 0.0 | 0.0 | 0.00 | 0.00 | 0.00 | 84 | 1018.5 |
| 20260902060410 | 25 | 94 | 0.0 | 0.0 | 0.00 | 0.00 | 0.00 | 84 | 1018.3 |
| 20260902055905 | 25 | 94 | 0.0 | 0.0 | 0.00 | 0.00 | 0.00 | 83 | 1018.5 |
| 20260902055401 | 25 | 100 | 0.0 | 0.0 | 0.00 | 0.00 | 0.00 | 83 | 1018.4 |
| 20260902054856 | 25 | 101 | 0.0 | 0.0 | 0.00 | 0.00 | 0.00 | 82 | 1018.4 |
| 20260902054352 | 25 | 102 | 0.0 | 0.0 | 0.00 | 0.00 | 0.00 | 82 | 1018.6 |
| 20260902053847 | 25 | 100 | 0.0 | 0.0 | 0.00 | 0.00 | 0.00 | 82 | 1018.6 |
| 20260902053342 | 25 | 100 | 0.0 | 0.0 | 0.00 | 0.00 | 0.00 | 81 | 1018.3 |
| 20260902052841 | 26 | 102 | 0.0 | 0.0 | 0.00 | 0.00 | 0.00 | 80 | 1018.6 |
| 20260902052337 | 26 | 106 | 0.0 | 0.0 | 0.00 | 0.00 | 0.00 | 80 | 1018.7 |
| 20260902051838 | 26 | 101 | 0.0 | 0.0 | 0.00 | 0.00 | 0.00 | 80 | 1018.6 |
| 20260902051332 | 26 | 101 | 0.0 | 0.0 | 0.00 | 0.00 | 0.00 | 79 | 1018.6 |
| 20260902050831 | 26 | 109 | 0.0 | 1.6 | 0.00 | 0.00 | 0.00 | 80 | 1018.5 |
| 20260902050331 | 25 | 106 | 0.0 | 1.6 | 0.00 | 0.00 | 0.00 | 80 | 1018.5 |
| 20260902045826 | 25 | 109 | 0.0 | 0.0 | 0.00 | 0.00 | 0.00 | 81 | 1018.6 |
| 20260902045322 | 25 | 103 | 0.0 | 0.0 | 0.00 | 0.00 | 0.00 | 82 | 1018.5 |
| 20260902044818 | 25 | 96 | 0.0 | 0.0 | 0.00 | 0.00 | 0.00 | 82 | 1018.4 |
| 20260902044313 | 25 | 100 | 0.0 | 0.0 | 0.00 | 0.00 | 0.00 | 82 | 1018.5 |
| 20260902043808 | 25 | 96 | 0.0 | 0.0 | 0.00 | 0.00 | 0.00 | 82 | 1018.4 |
| 20260902043304 | 25 | 95 | 0.0 | 0.0 | 0.00 | 0.00 | 0.00 | 81 | 1018.4 |
| 20260902042803 | 25 | 95 | 0.0 | 0.0 | 0.00 | 0.00 | 0.00 | 81 | 1018.5 |
| 20260902042258 | 25 | 88 | 0.0 | 0.0 | 0.00 | 0.00 | 0.00 | 80 | 1018.6 |
| 20260902041753 | 25 | 88 | 0.0 | 0.0 | 0.00 | 0.00 | 0.00 | 80 | 1018.7 |
| 20260902041253 | 26 | 88 | 0.0 | 0.0 | 0.00 | 0.00 | 0.00 | 79 | 1018.6 |
| 20260902040752 | 26 | 93 | 0.0 | 0.0 | 0.00 | 0.00 | 0.00 | 79 | 1018.5 |
| 20260902040248 | 26 | 93 | 0.0 | 0.0 | 0.00 | 0.00 | 0.00 | 78 | 1018.6 |
| 20260902035746 | 26 | 93 | 0.0 | 0.0 | 0.00 | 0.00 | 0.00 | 77 | 1018.5 |
| 20260902035242 | 26 | 98 | 0.0 | 0.0 | 0.00 | 0.00 | 0.00 | 77 | 1018.6 |
| 20260902034741 | 26 | 98 | 0.0 | 0.0 | 0.00 | 0.00 | 0.00 | 75 | 1018.6 |
| 20260902034236 | 27 | 93 | 0.0 | 1.6 | 0.00 | 0.00 | 0.00 | 75 | 1018.7 |
| 20260902033734 | 27 | 99 | 0.0 | 0.0 | 0.00 | 0.00 | 0.00 | 75 | 1018.5 |
| 20260902033229 | 27 | 102 | 0.0 | 0.0 | 0.00 | 0.00 | 0.00 | 75 | 1018.5 |
| 20260902032727 | 27 | 104 | 0.0 | 1.6 | 0.00 | 0.00 | 0.00 | 75 | 1018.7 |
| 20260902032223 | 27 | 105 | 0.0 | 1.6 | 0.00 | 0.00 | 0.00 | 74 | 1018.5 |
| 20260902031722 | 27 | 103 | 0.0 | 0.0 | 0.00 | 0.00 | 0.00 | 74 | 1018.3 |
| 20260902031218 | 27 | 103 | 0.0 | 0.0 | 0.00 | 0.00 | 0.00 | 74 | 1018.5 |
| 20260902030714 | 27 | 101 | 0.0 | 0.0 | 0.00 | 0.00 | 0.00 | 74 | 1018.4 |
| 20260902030214 | 27 | 100 | 0.0 | 0.0 | 0.00 | 0.00 | 0.00 | 73 | 1018.5 |
| 20260902025714 | 27 | 103 | 0.0 | 0.0 | 0.00 | 0.00 | 0.00 | 73 | 1018.5 |
| 20260902025209 | 27 | 104 | 0.0 | 1.6 | 0.00 | 0.00 | 0.00 | 73 | 1018.5 |
| 20260902024709 | 27 | 99 | 0.0 | 0.0 | 0.00 | 0.00 | 0.00 | 73 | 1018.6 |
| 20260902024204 | 27 | 103 | 0.0 | 0.0 | 0.00 | 0.00 | 0.00 | 74 | 1018.5 |
| 20260902023659 | 27 | 96 | 0.0 | 0.0 | 0.00 | 0.00 | 0.00 | 74 | 1018.3 |
| 20260902023155 | 27 | 93 | 0.0 | 0.0 | 0.00 | 0.00 | 0.00 | 74 | 1018.5 |
| 20260902022654 | 27 | 98 | 0.0 | 0.0 | 0.00 | 0.00 | 0.00 | 73 | 1018.7 |
| 20260902022150 | 27 | 102 | 0.0 | 0.0 | 0.00 | 0.00 | 0.00 | 73 | 1018.7 |
| 20260902021646 | 27 | 103 | 0.0 | 0.0 | 0.00 | 0.00 | 0.00 | 73 | 1018.4 |
| 20260902021146 | 27 | 101 | 0.0 | 0.0 | 0.00 | 0.00 | 0.00 | 74 | 1018.6 |
| 20260902020642 | 27 | 96 | 0.0 | 0.0 | 0.00 | 0.00 | 0.00 | 74 | 1018.5 |
| 20260902020138 | 27 | 98 | 0.0 | 0.0 | 0.00 | 0.00 | 0.00 | 74 | 1018.5 |
| 20260902015633 | 27 | 98 | 0.0 | 0.0 | 0.00 | 0.00 | 0.00 | 74 | 1018.8 |
| 20260902015130 | 28 | 100 | 0.0 | 0.0 | 0.00 | 0.00 | 0.00 | 73 | 1018.5 |
| 20260902014625 | 28 | 98 | 0.0 | 0.0 | 0.00 | 0.00 | 0.00 | 73 | 1018.7 |
| 20260902014120 | 28 | 95 | 0.0 | 0.0 | 0.00 | 0.00 | 0.00 | 72 | 1018.7 |
| 20260902013619 | 28 | 100 | 0.0 | 0.0 | 0.00 | 0.00 | 0.00 | 72 | 1018.6 |
| 20260902013115 | 28 | 98 | 0.0 | 0.0 | 0.00 | 0.00 | 0.00 | 72 | 1018.4 |
| 20260902012611 | 28 | 97 | 0.0 | 0.0 | 0.00 | 0.00 | 0.00 | 71 | 1018.5 |
| 20260902012106 | 28 | 98 | 0.0 | 0.0 | 0.00 | 0.00 | 0.00 | 70 | 1018.5 |
| 20260902011601 | 28 | 98 | 0.0 | 0.0 | 0.00 | 0.00 | 0.00 | 69 | 1018.3 |
| 20260902011101 | 29 | 97 | 0.0 | 0.0 | 0.00 | 0.00 | 0.00 | 68 | 1018.3 |
| 20260902010600 | 29 | 102 | 0.0 | 0.0 | 0.00 | 0.00 | 0.00 | 67 | 1018.2 |
| 20260902010056 | 30 | 100 | 0.0 | 0.0 | 0.00 | 0.00 | 0.00 | 66 | 1018.1 |
| 20260902005554 | 30 | 106 | 1.6 | 1.6 | 0.00 | 0.00 | 0.00 | 65 | 1017.9 |
| 20260902005050 | 30 | 102 | 0.0 | 1.6 | 0.00 | 0.00 | 0.00 | 65 | 1018.1 |
| 20260902004549 | 30 | 105 | 0.0 | 0.0 | 0.00 | 0.00 | 0.00 | 65 | 1018.1 |
| 20260902004045 | 30 | 103 | 0.0 | 1.6 | 0.00 | 0.00 | 0.00 | 65 | 1017.9 |
| 20260902003540 | 30 | 107 | 0.0 | 3.2 | 0.00 | 0.00 | 0.00 | 64 | 1018.0 |
| 20260902003036 | 30 | 97 | 0.0 | 1.6 | 0.00 | 0.00 | 0.00 | 64 | 1018.1 |
| 20260902002531 | 30 | 111 | 0.0 | 1.6 | 0.00 | 0.00 | 0.00 | 64 | 1018.2 |
| 20260902002027 | 30 | 118 | 1.6 | 1.6 | 0.00 | 0.00 | 0.00 | 64 | 1018.1 |
| 20260902001526 | 31 | 103 | 0.0 | 1.6 | 0.00 | 0.00 | 0.00 | 63 | 1018.2 |
| 20260902001022 | 31 | 96 | 0.0 | 1.6 | 0.00 | 0.00 | 0.00 | 63 | 1018.2 |
| 20260902000516 | 31 | 101 | 0.0 | 1.6 | 0.00 | 0.00 | 0.00 | 63 | 1018.1 |
| 20260902000012 | 31 | 142 | 1.6 | 1.6 | 0.00 | 0.00 | 0.00 | 62 | 1018.2 |
| 20260901235506 | 31 | 137 | 1.6 | 1.6 | 0.00 | 0.00 | 0.00 | 62 | 1018.2 |
| 20260901235002 | 31 | 103 | 0.0 | 3.2 | 0.00 | 0.00 | 0.00 | 62 | 1018.2 |
| 20260901234455 | 31 | 104 | 1.6 | 1.6 | 0.00 | 0.00 | 0.00 | 62 | 1018.2 |
| 20260901233955 | 31 | 98 | 0.0 | 3.2 | 0.00 | 0.00 | 0.00 | 62 | 1018.2 |
| 20260901233451 | 32 | 109 | 0.0 | 3.2 | 0.00 | 0.00 | 0.00 | 61 | 1018.3 |
| 20260901232947 | 32 | 99 | 0.0 | 1.6 | 0.00 | 0.00 | 0.00 | 59 | 1018.4 |
| 20260901232442 | 32 | 101 | 0.0 | 1.6 | 0.00 | 0.00 | 0.00 | 59 | 1018.4 |
| 20260901231937 | 32 | 88 | 0.0 | 3.2 | 0.00 | 0.00 | 0.00 | 58 | 1018.3 |
| 20260901231433 | 33 | 100 | 0.0 | 1.6 | 0.00 | 0.00 | 0.00 | 57 | 1018.3 |
| 20260901230930 | 33 | 107 | 0.0 | 1.6 | 0.00 | 0.00 | 0.00 | 56 | 1018.3 |
| 20260901230429 | 33 | 104 | 0.0 | 1.6 | 0.00 | 0.00 | 0.00 | 55 | 1018.4 |
| 20260901225925 | 33 | 96 | 0.0 | 1.6 | 0.00 | 0.00 | 0.00 | 55 | 1018.3 |
| 20260901225424 | 33 | 117 | 1.6 | 1.6 | 0.00 | 0.00 | 0.00 | 54 | 1018.4 |
| 20260901224919 | 33 | 102 | 0.0 | 1.6 | 0.00 | 0.00 | 0.00 | 53 | 1018.1 |
| 20260901224415 | 33 | 94 | 0.0 | 3.2 | 0.00 | 0.00 | 0.00 | 54 | 1018.1 |
| 20260901223912 | 34 | 126 | 0.0 | 1.6 | 0.00 | 0.00 | 0.00 | 53 | 1018.4 |
| 20260901223406 | 34 | 124 | 1.6 | 3.2 | 0.00 | 0.00 | 0.00 | 53 | 1018.2 |
| 20260901222902 | 34 | 97 | 1.6 | 4.8 | 0.00 | 0.00 | 0.00 | 52 | 1018.2 |
| 20260901222359 | 34 | 91 | 1.6 | 3.2 | 0.00 | 0.00 | 0.00 | 52 | 1018.2 |
| 20260901221854 | 34 | 108 | 3.2 | 4.8 | 0.00 | 0.00 | 0.00 | 52 | 1018.1 |
| 20260901221350 | 35 | 160 | 1.6 | 4.8 | 0.00 | 0.00 | 0.00 | 50 | 1018.1 |
| 20260901220849 | 35 | 107 | 0.0 | 3.2 | 0.00 | 0.00 | 0.00 | 53 | 1018.1 |
| 20260901220348 | 35 | 91 | 1.6 | 3.2 | 0.00 | 0.00 | 0.00 | 52 | 1018.0 |
| 20260901215848 | 35 | 152 | 1.6 | 6.4 | 0.00 | 0.00 | 0.00 | 52 | 1018.1 |
| 20260901215347 | 35 | 145 | 1.6 | 3.2 | 0.00 | 0.00 | 0.00 | 51 | 1018.1 |
| 20260901214845 | 35 | 120 | 1.6 | 3.2 | 0.00 | 0.00 | 0.00 | 51 | 1018.2 |
| 20260901214345 | 35 | 114 | 1.6 | 3.2 | 0.00 | 0.00 | 0.00 | 51 | 1018.2 |
| 20260901213844 | 35 | 174 | 3.2 | 3.2 | 0.00 | 0.00 | 0.00 | 50 | 1018.0 |
| 20260901213339 | 35 | 48 | 1.6 | 4.8 | 0.00 | 0.00 | 0.00 | 51 | 1018.3 |